Location: Lecco
(45.8566°N, 9.3977°E)
Time: 22:08:58
(UTC+02:00)

Courier 1B Rocket - Pass Details

Date: 02 September 2019
Orbit: 920 x 1202 km, 28.2° (Epoch: 14 October)

Event Time Altitude Azimuth Distance (km) Brightness Sun altitude
Rises 02:41:17 0° 239° (WSW) 3,655 - -33.2°
Reaches altitude 10° 02:44:52 10° 220° (SW) 2,756 - -33.0°
Maximum altitude 02:48:56 17° 182° (S) 2,344 - -32.7°
Drops below altitude 10° 02:53:09 10° 145° (SE) 2,881 - -32.4°
Exits shadow 02:56:59 - 127° (SE) 3,880 8.1 -32.1°
Sets 02:57:03 0° 126° (SE) 3,897 8.1 -32.0°
